This is the latest recevied weather packets stored in our database for station/object WP3OF. If no packets are shown the sender has not sent any weather packets the latest 1 day(s).
| Time | Temp. | Humidity | Pressure | Rain* | Wind** | Luminosity | Snow |
|---|---|---|---|---|---|---|---|
| 1778005273 | - | - | - | 0 mm | 4.47 m/s, 29° | - | - |
| 1778004969 | - | - | - | 0 mm | 4.92 m/s, 15° | - | - |
| 1778004667 | - | - | - | 0 mm | 3.13 m/s, 61° | - | - |
| 1778004362 | - | - | - | 0 mm | 5.36 m/s, 31° | - | - |
| 1778004060 | - | - | - | 0 mm | 6.71 m/s, 40° | - | - |
| 1778003755 | - | - | - | 0 mm | 3.58 m/s, 48° | - | - |
| 1778003452 | - | - | - | 0 mm | 4.92 m/s, 35° | - | - |
| 1778003149 | - | - | - | 0 mm | 4.47 m/s, 35° | - | - |
| 1778002845 | - | - | - | 0 mm | 3.58 m/s, 19° | - | - |
| 1778002542 | - | - | - | 0 mm | 4.92 m/s, 32° | - | - |
| 1778002239 | - | - | - | 0 mm | 4.92 m/s, 24° | - | - |
| 1778001937 | - | - | - | 0 mm | 4.02 m/s, 32° | - | - |
| 1778001633 | - | - | - | 0 mm | 4.02 m/s, 30° | - | - |
| 1778001328 | - | - | - | 0 mm | 4.02 m/s, 23° | - | - |
| 1778001025 | - | - | - | 0 mm | 4.47 m/s, 42° | - | - |
| 1778000722 | - | - | - | 0 mm | 5.36 m/s, 45° | - | - |
| 1778000418 | - | - | - | 0 mm | 3.13 m/s, 44° | - | - |
| 1778000114 | - | - | - | 0 mm | 4.02 m/s, 28° | - | - |
| 1777999809 | - | - | - | 0 mm | 4.02 m/s, 71° | - | - |
| 1777999506 | - | - | - | 0 mm | 4.02 m/s, 45° | - | - |
| 1777999204 | - | - | - | 0 mm | 2.68 m/s, 40° | - | - |
| 1777998902 | - | - | - | 0 mm | 4.02 m/s, 40° | - | - |
| 1777998602 | - | - | - | 0 mm | 4.47 m/s, 32° | - | - |
| 1777998297 | - | - | - | 0 mm | 4.47 m/s, 32° | - | - |
| 1777997993 | - | - | - | 0 mm | 4.02 m/s, 35° | - | - |
* Rain latest hour (hover to see other rain measurements)
** Current wind speed in m/s (hover to see current wind gust speed)